TimeEST,TemperatureF,Dew PointF,Humidity,Sea Level PressureIn,VisibilityMPH,Wind Direction,Wind SpeedMPH,Gust SpeedMPH,PrecipitationIn,Events,Conditions,WindDirDegrees,DateUTC
12:11 AM,32.0,32.0,100,30.16,5.0,SW,4.6,-,N/A,,Clear,230,2011-12-01 05:11:00
12:31 AM,32.0,32.0,100,30.16,5.0,WSW,3.5,-,N/A,,Clear,240,2011-12-01 05:31:00
12:51 AM,30.2,30.2,100,30.17,5.0,WSW,4.6,-,N/A,,Clear,240,2011-12-01 05:51:00
1:11 AM,30.2,30.2,100,30.18,5.0,WSW,5.8,-,N/A,,Clear,250,2011-12-01 06:11:00
1:31 AM,30.2,30.2,100,30.18,5.0,WSW,5.8,-,N/A,,Clear,240,2011-12-01 06:31:00
2:12 AM,30.2,30.2,100,30.20,5.0,WSW,4.6,-,N/A,,Clear,250,2011-12-01 07:12:00
2:32 AM,30.2,30.2,100,30.21,5.0,WSW,4.6,-,N/A,,Clear,250,2011-12-01 07:32:00
2:52 AM,30.2,30.2,100,30.21,5.0,Calm,Calm,-,N/A,,Clear,0,2011-12-01 07:52:00
3:12 AM,28.4,28.4,100,30.21,4.0,SSW,3.5,-,N/A,,Clear,210,2011-12-01 08:12:00
3:33 AM,28.4,28.4,100,30.20,4.0,Calm,Calm,-,N/A,,Clear,0,2011-12-01 08:33:00
3:53 AM,30.2,30.2,100,30.20,4.0,South,3.5,-,N/A,,Clear,190,2011-12-01 08:53:00
4:13 AM,28.4,28.4,100,30.21,5.0,SW,4.6,-,N/A,,Clear,220,2011-12-01 09:13:00
4:33 AM,28.4,28.4,100,30.22,5.0,SSW,4.6,-,N/A,,Clear,210,2011-12-01 09:33:00
4:53 AM,28.4,28.4,100,30.22,5.0,SW,3.5,-,N/A,,Clear,220,2011-12-01 09:53:00
5:33 AM,28.4,28.4,100,30.23,5.0,SSW,3.5,-,N/A,,Clear,210,2011-12-01 10:33:00
5:54 AM,28.4,28.4,100,30.24,5.0,SW,4.6,-,N/A,,Clear,230,2011-12-01 10:54:00
6:14 AM,28.4,28.4,100,30.25,5.0,SW,4.6,-,N/A,,Clear,230,2011-12-01 11:14:00
6:34 AM,28.4,28.4,100,30.25,5.0,SSW,3.5,-,N/A,,Clear,210,2011-12-01 11:34:00
6:54 AM,28.4,28.4,100,30.25,5.0,Calm,Calm,-,N/A,,Clear,0,2011-12-01 11:54:00
7:14 AM,28.4,28.4,100,30.26,5.0,SW,3.5,-,N/A,,Clear,220,2011-12-01 12:14:00
7:34 AM,26.6,26.6,100,30.27,5.0,WSW,3.5,-,N/A,,Clear,240,2011-12-01 12:34:00
7:54 AM,28.4,28.4,100,30.28,4.0,SW,3.5,-,N/A,,Clear,230,2011-12-01 12:54:00
8:15 AM,28.4,28.4,100,30.28,4.0,SW,5.8,-,N/A,,Clear,220,2011-12-01 13:15:00
8:35 AM,28.4,28.4,100,30.28,5.0,SSW,3.5,-,N/A,,Clear,200,2011-12-01 13:35:00
8:55 AM,30.2,30.2,100,30.29,5.0,SW,6.9,-,N/A,,Clear,220,2011-12-01 13:55:00
9:15 AM,30.2,30.2,100,30.30,5.0,SW,6.9,-,N/A,,Clear,220,2011-12-01 14:15:00
9:35 AM,32.0,32.0,100,30.29,7.0,SSW,8.1,-,N/A,,Clear,210,2011-12-01 14:35:00
10:11 AM,33.8,33.8,100,30.29,7.0,SSW,5.8,-,N/A,,Clear,200,2011-12-01 15:11:00
10:31 AM,35.6,33.8,93,30.30,10.0,WSW,6.9,-,N/A,,Clear,250,2011-12-01 15:31:00
10:51 AM,35.6,30.2,81,30.31,10.0,SW,5.8,-,N/A,,Clear,230,2011-12-01 15:51:00
11:11 AM,37.4,30.2,75,30.30,10.0,WSW,8.1,-,N/A,,Clear,240,2011-12-01 16:11:00
11:31 AM,37.4,30.2,75,30.30,10.0,WSW,9.2,-,N/A,,Clear,240,2011-12-01 16:31:00
11:51 AM,39.2,28.4,65,30.29,10.0,SW,10.4,-,N/A,,Clear,230,2011-12-01 16:51:00
12:12 PM,39.2,28.4,65,30.28,10.0,WSW,10.4,-,N/A,,Clear,250,2011-12-01 17:12:00
12:32 PM,39.2,28.4,65,30.28,10.0,SW,10.4,-,N/A,,Clear,230,2011-12-01 17:32:00
12:52 PM,39.2,28.4,65,30.26,10.0,SW,10.4,-,N/A,,Clear,220,2011-12-01 17:52:00
1:12 PM,41.0,28.4,61,30.26,10.0,WSW,11.5,-,N/A,,Clear,240,2011-12-01 18:12:00
1:32 PM,41.0,28.4,61,30.26,10.0,WSW,11.5,-,N/A,,Clear,250,2011-12-01 18:32:00
2:13 PM,42.8,28.4,57,30.24,10.0,WSW,8.1,-,N/A,,Clear,240,2011-12-01 19:13:00
2:33 PM,42.8,30.2,61,30.24,10.0,West,10.4,-,N/A,,Clear,260,2011-12-01 19:33:00
2:53 PM,41.0,28.4,61,30.24,10.0,WSW,9.2,-,N/A,,Clear,240,2011-12-01 19:53:00
3:13 PM,41.0,28.4,61,30.23,10.0,SW,10.4,-,N/A,,Clear,230,2011-12-01 20:13:00
3:33 PM,42.8,30.2,61,30.24,10.0,SW,9.2,-,N/A,,Clear,230,2011-12-01 20:33:00
3:53 PM,41.0,30.2,65,30.24,10.0,West,8.1,-,N/A,,Clear,260,2011-12-01 20:53:00
4:14 PM,39.2,28.4,65,30.24,10.0,WSW,9.2,-,N/A,,Clear,240,2011-12-01 21:14:00
4:34 PM,39.2,28.4,65,30.25,10.0,WSW,4.6,-,N/A,,Clear,250,2011-12-01 21:34:00
4:54 PM,37.4,30.2,75,30.25,10.0,SW,4.6,-,N/A,,Clear,230,2011-12-01 21:54:00
5:14 PM,37.4,28.4,70,30.25,10.0,Calm,Calm,-,N/A,,Clear,0,2011-12-01 22:14:00
5:34 PM,35.6,28.4,75,30.26,10.0,Calm,Calm,-,N/A,,Clear,0,2011-12-01 22:34:00
5:54 PM,33.8,30.2,87,30.26,10.0,Calm,Calm,-,N/A,,Clear,0,2011-12-01 22:54:00
6:15 PM,35.6,30.2,81,30.26,10.0,Calm,Calm,-,N/A,,Clear,0,2011-12-01 23:15:00
6:35 PM,33.8,32.0,93,30.26,10.0,Calm,Calm,-,N/A,,Clear,0,2011-12-01 23:35:00
6:55 PM,33.8,32.0,93,30.26,10.0,Calm,Calm,-,N/A,,Clear,0,2011-12-01 23:55:00
7:15 PM,32.0,32.0,100,30.26,10.0,Calm,Calm,-,N/A,,Clear,0,2011-12-02 00:15:00
7:35 PM,32.0,32.0,100,30.26,7.0,Calm,Calm,-,N/A,,Clear,0,2011-12-02 00:35:00
7:50 PM,32.0,32.0,100,30.26,10.0,Calm,Calm,-,N/A,,Clear,0,2011-12-02 00:50:00
8:11 PM,30.2,30.2,100,30.25,10.0,Calm,Calm,-,N/A,,Clear,0,2011-12-02 01:11:00
8:31 PM,32.0,32.0,100,30.25,10.0,Calm,Calm,-,N/A,,Clear,0,2011-12-02 01:31:00
8:51 PM,32.0,32.0,100,30.24,10.0,South,3.5,-,N/A,,Clear,180,2011-12-02 01:51:00
9:11 PM,33.8,32.0,93,30.25,10.0,SW,3.5,-,N/A,,Scattered Clouds,220,2011-12-02 02:11:00
9:31 PM,35.6,32.0,87,30.24,10.0,SSW,5.8,-,N/A,,Scattered Clouds,200,2011-12-02 02:31:00
9:51 PM,35.6,33.8,93,30.24,10.0,SSW,3.5,-,N/A,,Mostly Cloudy,210,2011-12-02 02:51:00
10:12 PM,35.6,33.8,93,30.24,10.0,SSW,4.6,-,N/A,,Overcast,210,2011-12-02 03:12:00
10:32 PM,35.6,33.8,93,30.24,10.0,SW,4.6,-,N/A,,Overcast,220,2011-12-02 03:32:00
10:52 PM,35.6,33.8,93,30.25,10.0,SW,5.8,-,N/A,,Overcast,230,2011-12-02 03:52:00
11:12 PM,35.6,32.0,87,30.24,10.0,SW,4.6,-,N/A,,Overcast,230,2011-12-02 04:12:00
11:32 PM,35.6,32.0,87,30.24,10.0,SW,6.9,-,N/A,,Overcast,230,2011-12-02 04:32:00